AFR1A LPMA-LFPG

Flight info

Callsign AFR1A
Flight time N/A
Altitude 38000
Route DEGUN DCT GALPA DCT NARTA DCT DIGAL DCT TOSDI DCT ZMR N976 DGO L176 LUSEM DCT LULUT DCT POI/N0420F300 DCT PEPAX UT182 KEPER
Aircraft A319/M-SDE3FGHIRWY/LB1

Departure

Time 2026-05-04 14:38
Airport Cristiano Ronaldo International Airport (LPMA)

Arrival

Time N/A
Airport Charles de Gaulle International Airport (LFPG)
Time Latitude Longitude Altitude Speed Heading
2026-05-04 14:12 32.69382 -16.77620 192 ft 0 kts 138°
2026-05-04 14:26 32.69381 -16.77619 192 ft 0 kts 138°
2026-05-04 14:26 32.69387 -16.77626 193 ft 2 kts 137°
2026-05-04 14:26 32.69398 -16.77638 195 ft 2 kts 138°
2026-05-04 14:27 32.69410 -16.77650 197 ft 2 kts 137°
2026-05-04 14:27 32.69420 -16.77661 199 ft 1 kts 138°
2026-05-04 14:27 32.69427 -16.77669 199 ft 2 kts 110°
2026-05-04 14:27 32.69426 -16.77686 199 ft 1 kts 57°
2026-05-04 14:28 32.69422 -16.77691 199 ft 1 kts 39°
2026-05-04 14:28 32.69419 -16.77694 199 ft 0 kts 45°
2026-05-04 14:30 32.69420 -16.77693 199 ft 1 kts 45°
2026-05-04 14:30 32.69452 -16.77652 200 ft 10 kts 46°
2026-05-04 14:30 32.69570 -16.77505 200 ft 13 kts 46°
2026-05-04 14:31 32.69636 -16.77425 201 ft 13 kts 46°
2026-05-04 14:31 32.69745 -16.77291 202 ft 10 kts 46°
2026-05-04 14:32 32.69795 -16.77229 202 ft 1 kts 46°
2026-05-04 14:33 32.69810 -16.77211 203 ft 4 kts 45°
2026-05-04 14:34 32.69850 -16.77183 206 ft 8 kts 16°
2026-05-04 14:34 32.69900 -16.77177 210 ft 9 kts
2026-05-04 14:34 32.69994 -16.77174 216 ft 13 kts 10°
2026-05-04 14:34 32.70090 -16.77093 211 ft 22 kts 45°
2026-05-04 14:35 32.70211 -16.76949 205 ft 28 kts 45°
2026-05-04 14:35 32.70366 -16.76769 205 ft 28 kts 44°
2026-05-04 14:35 32.70497 -16.76616 209 ft 25 kts 45°
2026-05-04 14:35 32.70599 -16.76503 205 ft 10 kts 23°
2026-05-04 14:36 32.70669 -16.76479 207 ft 8 kts 34°
2026-05-04 14:36 32.70673 -16.76419 206 ft 7 kts 152°
2026-05-04 14:36 32.70651 -16.76433 205 ft 0 kts 230°
2026-05-04 14:37 32.70614 -16.76480 205 ft 30 kts 224°
2026-05-04 14:37 32.70281 -16.76869 204 ft 101 kts 224°
2026-05-04 14:37 32.69633 -16.77626 224 ft 158 kts 223°
2026-05-04 14:37 32.68820 -16.78603 696 ft 168 kts 224°
2026-05-04 14:38 32.67897 -16.79414 1305 ft 170 kts 191°
2026-05-04 14:38 32.66759 -16.79299 1986 ft 167 kts 160°
2026-05-04 14:38 32.65636 -16.78819 2371 ft 183 kts 159°
2026-05-04 14:38 32.64349 -16.78375 2744 ft 201 kts 166°
2026-05-04 14:39 32.62900 -16.78046 3106 ft 224 kts 169°
2026-05-04 14:39 32.61294 -16.77711 3597 ft 241 kts 169°
2026-05-04 14:39 32.59634 -16.77301 4210 ft 254 kts 157°
2026-05-04 14:40 32.57688 -16.73848 5526 ft 280 kts 90°
2026-05-04 14:40 32.58112 -16.71611 6429 ft 284 kts 65°
2026-05-04 14:40 32.59057 -16.69589 7285 ft 287 kts 53°
2026-05-04 14:40 32.60395 -16.67831 8146 ft 291 kts 44°
2026-05-04 14:41 32.61854 -16.66144 8992 ft 294 kts 43°
2026-05-04 14:41 32.63305 -16.64440 9839 ft 297 kts 44°
2026-05-04 14:41 32.66272 -16.60868 11008 ft 321 kts 45°
2026-05-04 14:42 32.69563 -16.56825 11737 ft 356 kts 45°
2026-05-04 14:42 32.71288 -16.54696 12365 ft 364 kts 45°
2026-05-04 14:42 32.73051 -16.52519 13035 ft 368 kts 45°
2026-05-04 14:43 32.74823 -16.50331 13751 ft 371 kts 45°
2026-05-04 14:43 32.76625 -16.48099 14440 ft 376 kts 45°
2026-05-04 14:43 32.78434 -16.45844 15047 ft 381 kts 45°
2026-05-04 14:43 32.80250 -16.43566 15682 ft 385 kts 45°
2026-05-04 14:44 32.82093 -16.41251 16356 ft 389 kts 45°
2026-05-04 14:44 32.83971 -16.38880 16969 ft 393 kts 45°
2026-05-04 14:44 32.85854 -16.36496 17563 ft 397 kts 45°
2026-05-04 14:44 32.87747 -16.34095 18127 ft 401 kts 45°
2026-05-04 14:45 32.89648 -16.31684 18701 ft 405 kts 45°
2026-05-04 14:45 32.91579 -16.29227 19243 ft 410 kts 45°
2026-05-04 14:45 32.93541 -16.26727 19753 ft 414 kts 45°
2026-05-04 14:45 32.95510 -16.24213 20267 ft 418 kts 45°
2026-05-04 14:46 32.97489 -16.21684 20801 ft 422 kts 45°
2026-05-04 14:46 32.99506 -16.19109 21291 ft 426 kts 45°
2026-05-04 14:46 33.01506 -16.16548 21779 ft 430 kts 45°
2026-05-04 14:46 33.03547 -16.13931 22231 ft 435 kts 45°
2026-05-04 14:47 33.05631 -16.11251 22683 ft 439 kts 45°
2026-05-04 14:47 33.07703 -16.08580 23158 ft 442 kts 45°
2026-05-04 14:47 33.09781 -16.05897 23620 ft 446 kts 45°
2026-05-04 14:47 33.11889 -16.03164 24097 ft 449 kts 45°
2026-05-04 14:48 33.13990 -16.00438 24527 ft 452 kts 45°
2026-05-04 14:48 33.16131 -15.97653 24971 ft 455 kts 45°
2026-05-04 14:48 33.18287 -15.94839 25390 ft 459 kts 45°
2026-05-04 14:48 33.20427 -15.92052 25843 ft 461 kts 45°
2026-05-04 14:49 33.22581 -15.89245 26293 ft 463 kts 45°
2026-05-04 14:49 33.24779 -15.86378 26707 ft 466 kts 45°
2026-05-04 14:49 33.26969 -15.83515 27107 ft 468 kts 45°
2026-05-04 14:49 33.29150 -15.80662 27504 ft 471 kts 45°
2026-05-04 14:50 33.31372 -15.77756 27876 ft 474 kts 45°
2026-05-04 14:50 33.33603 -15.74838 28268 ft 477 kts 45°
2026-05-04 14:50 33.35834 -15.71910 28655 ft 479 kts 45°
2026-05-04 14:50 33.38071 -15.68966 29034 ft 481 kts 45°
2026-05-04 14:51 33.40308 -15.66017 29450 ft 482 kts 45°
2026-05-04 14:51 33.42544 -15.63064 29953 ft 481 kts 45°
2026-05-04 14:51 33.44773 -15.60109 30468 ft 479 kts 45°
2026-05-04 14:51 33.47018 -15.57127 30954 ft 478 kts 45°
2026-05-04 14:52 33.49232 -15.54194 31401 ft 478 kts 45°
2026-05-04 14:52 33.51438 -15.51264 31826 ft 478 kts 45°
2026-05-04 14:52 33.53680 -15.48282 32255 ft 477 kts 45°
2026-05-04 14:52 33.55889 -15.45343 32705 ft 476 kts 45°
2026-05-04 14:53 33.58081 -15.42418 33140 ft 476 kts 45°
2026-05-04 14:53 33.60292 -15.39470 33599 ft 474 kts 45°
2026-05-04 14:53 33.62480 -15.36549 34036 ft 473 kts 45°
2026-05-04 14:53 33.64737 -15.33657 34363 ft 472 kts 41°
2026-05-04 14:54 33.67144 -15.31003 34631 ft 472 kts 39°
2026-05-04 14:54 33.69601 -15.28421 34833 ft 474 kts 38°
2026-05-04 14:54 33.72098 -15.25807 35043 ft 477 kts 38°
2026-05-04 14:54 33.74588 -15.23181 35258 ft 478 kts 39°
2026-05-04 14:55 33.77095 -15.20517 35477 ft 480 kts 39°
2026-05-04 14:55 33.79573 -15.17867 35691 ft 482 kts 39°
2026-05-04 14:55 33.82065 -15.15192 35875 ft 484 kts 39°
2026-05-04 14:55 33.84569 -15.12497 36056 ft 486 kts 39°
2026-05-04 14:56 33.89630 -15.07036 36100 ft 487 kts 39°
2026-05-04 14:56 33.94653 -15.01602 36101 ft 487 kts 39°
2026-05-04 14:57 33.99671 -14.96164 36099 ft 486 kts 39°
2026-05-04 14:57 34.04678 -14.90727 36100 ft 487 kts 39°
2026-05-04 14:58 34.09699 -14.85270 36099 ft 488 kts 39°
2026-05-04 14:58 34.14753 -14.79766 36099 ft 488 kts 39°
2026-05-04 14:59 34.19781 -14.74284 36100 ft 489 kts 39°
2026-05-04 15:00 34.27317 -14.66046 36100 ft 489 kts 39°
2026-05-04 15:00 34.32329 -14.60556 36102 ft 488 kts 39°
2026-05-04 15:01 34.39888 -14.52259 36103 ft 489 kts 39°
2026-05-04 15:01 34.44902 -14.46741 36105 ft 489 kts 38°
2026-05-04 15:02 34.49920 -14.41209 36103 ft 489 kts 38°
2026-05-04 15:02 34.54959 -14.35651 36112 ft 490 kts 38°
2026-05-04 15:03 34.59995 -14.30082 36124 ft 491 kts 39°
2026-05-04 15:03 34.65011 -14.24526 36123 ft 491 kts 39°
2026-05-04 15:04 34.70061 -14.18923 36130 ft 491 kts 39°
2026-05-04 15:04 34.75108 -14.13315 36129 ft 492 kts 39°
2026-05-04 15:05 34.80142 -14.07710 36134 ft 492 kts 39°
2026-05-04 15:05 34.85172 -14.02104 36131 ft 493 kts 39°
2026-05-04 15:06 34.90219 -13.96464 36140 ft 493 kts 38°
2026-05-04 15:07 34.97757 -13.88022 36145 ft 491 kts 38°
2026-05-04 15:07 35.02786 -13.82382 36133 ft 491 kts 38°
2026-05-04 15:08 35.07788 -13.76762 36134 ft 492 kts 38°
2026-05-04 15:08 35.12812 -13.71102 36129 ft 491 kts 38°
2026-05-04 15:09 35.17810 -13.65462 36131 ft 491 kts 38°
2026-05-04 15:09 35.22833 -13.59790 36126 ft 491 kts 38°
2026-05-04 15:10 35.30315 -13.51313 36133 ft 490 kts 38°
2026-05-04 15:11 35.37788 -13.42832 36128 ft 490 kts 38°
2026-05-04 15:11 35.42786 -13.37143 36127 ft 490 kts 38°
2026-05-04 15:12 35.47784 -13.31447 36125 ft 490 kts 38°
2026-05-04 15:12 35.52742 -13.25784 36130 ft 490 kts 38°
2026-05-04 15:13 35.57737 -13.20070 36130 ft 489 kts 38°
2026-05-04 15:13 35.62711 -13.14369 36128 ft 489 kts 38°
2026-05-04 15:14 35.67679 -13.08669 36127 ft 490 kts 38°
2026-05-04 15:14 35.72637 -13.02962 36132 ft 489 kts 38°
2026-05-04 15:15 35.77592 -12.97250 36134 ft 488 kts 38°
2026-05-04 15:15 35.82540 -12.91542 36484 ft 489 kts 38°
2026-05-04 15:16 35.87480 -12.85831 36186 ft 486 kts 38°
2026-05-04 15:16 35.89930 -12.82994 36153 ft 485 kts 38°
2026-05-04 15:17 35.97298 -12.74452 36135 ft 486 kts 38°
2026-05-04 15:17 36.04662 -12.65887 36124 ft 485 kts 38°
2026-05-04 15:18 36.09558 -12.60177 36119 ft 484 kts 37°
2026-05-04 15:18 36.11997 -12.57333 35929 ft 485 kts 38°
2026-05-04 15:19 36.16917 -12.51585 36084 ft 487 kts 38°
2026-05-04 15:19 36.24263 -12.42979 36119 ft 486 kts 38°
2026-05-04 15:20 36.29178 -12.37208 36120 ft 486 kts 38°
2026-05-04 15:20 36.34056 -12.31466 36117 ft 486 kts 38°
2026-05-04 15:21 36.38952 -12.25699 36118 ft 486 kts 38°
2026-05-04 15:22 36.46277 -12.17049 36119 ft 486 kts 38°
2026-05-04 15:22 36.53604 -12.08370 36121 ft 485 kts 38°
2026-05-04 15:23 36.58462 -12.02603 36118 ft 485 kts 38°
2026-05-04 15:23 36.63364 -11.96775 36116 ft 486 kts 38°
2026-05-04 15:24 36.73074 -11.85194 36116 ft 484 kts 38°
2026-05-04 15:25 36.77916 -11.79405 36119 ft 484 kts 39°
2026-05-04 15:26 36.84364 -11.71678 36116 ft 484 kts 39°